Starlink 30812

operational
NORAD ID: 58168 Int'l Des: 2023-166 Owner: SPXS Country: US Constellation: starlink
LEOCIRCULAR

About Starlink 30812

Description loading...

Live Position

Loading 3D Globe...

Upcoming Passes

Altitude History

Altitude vs Time

uPlot chart will show altitude changes over time

Two-Line Element Set

1 58168U 23166U 25349.89652868 -.00002884 00000-0 -85358-4 0 9998
2 58168 53.1600 248.5837 0001088 89.5987 270.5139 15.30178888120206
Epoch: Dec 15, 2025 • Age: 21 hours

Current Status

Altitude 485.9 km
Velocity 7.62 km/s
Sub-Earth Point -32.59°S, 84.31°E
Launch Date Oct 29, 2023
Age 2.1 years
Type internet

Technical Details

Classification Payload
Mass 730.00 kg
Dry Mass 700.00 kg
Total Mass 730.00 kg
Length 0.30 m
Diameter 4.10 m
Span 29.00 m
Shape Box + pan
Manufacturer SPXS
Bus Type Starlink V2M
Phase Status In Orbit
Owner/State SPXS/US

Large Constellations

Loading constellations...